TimeWET,TemperatureF,Dew PointF,Humidity,Sea Level PressureIn,VisibilityMPH,Wind Direction,Wind SpeedMPH,Gust SpeedMPH,PrecipitationIn,Events,Conditions,WindDirDegrees,DateUTC
12:00 AM,61,42,39,29.94,6,SE,2.3,,,,,140,2013-03-16 00:00:00
12:00 AM,60.8,42.8,52,29.95,-9999.0,Variable,2.3,-,N/A,,Clear,0,2013-03-16 00:00:00
12:30 AM,60.8,42.8,52,29.95,-9999.0,Calm,Calm,-,N/A,,Clear,0,2013-03-16 00:30:00
1:00 AM,59.0,42.8,55,29.95,-9999.0,Calm,Calm,-,N/A,,Clear,0,2013-03-16 01:00:00
1:30 AM,57.2,44.6,63,29.95,-9999.0,Variable,2.3,-,N/A,,Clear,0,2013-03-16 01:30:00
2:00 AM,59.0,44.6,59,29.92,-9999.0,NE,3.5,-,N/A,,Clear,50,2013-03-16 02:00:00
2:30 AM,57.2,44.6,63,29.92,-9999.0,ENE,4.6,-,N/A,,Clear,70,2013-03-16 02:30:00
3:00 AM,58,46,56,29.90,6,ESE,5.8,,,,,110,2013-03-16 03:00:00
3:00 AM,59.0,46.4,63,29.92,-9999.0,ESE,5.8,-,N/A,,Clear,110,2013-03-16 03:00:00
3:30 AM,57.2,48.2,72,29.89,-9999.0,East,4.6,-,N/A,,Clear,80,2013-03-16 03:30:00
4:00 AM,55.4,48.2,77,29.89,-9999.0,East,4.6,-,N/A,,Clear,90,2013-03-16 04:00:00
4:30 AM,57.2,48.2,72,29.89,-9999.0,East,5.8,-,N/A,,Clear,90,2013-03-16 04:30:00
5:00 AM,57.2,48.2,72,29.86,-9999.0,ENE,5.8,-,N/A,,Clear,70,2013-03-16 05:00:00
5:30 AM,57.2,48.2,72,29.89,-9999.0,ENE,1.2,-,N/A,,Clear,60,2013-03-16 05:30:00
6:00 AM,55.4,46.4,72,29.89,-9999.0,NE,3.5,-,N/A,,Clear,50,2013-03-16 06:00:00
6:30 AM,55.4,46.4,72,29.89,-9999.0,Calm,Calm,-,N/A,,Clear,0,2013-03-16 06:30:00
7:00 AM,57.2,48.2,72,29.89,-9999.0,SE,3.5,-,N/A,,Clear,130,2013-03-16 07:00:00
7:30 AM,60.8,48.2,63,29.92,-9999.0,SE,3.5,-,N/A,,Clear,130,2013-03-16 07:30:00
8:00 AM,60.8,50.0,68,29.92,-9999.0,ENE,5.8,-,N/A,,Clear,70,2013-03-16 08:00:00
9:00 AM,66,50,46,29.88,6,East,6.9,,,,Partly Cloudy,100,2013-03-16 09:00:00
9:00 AM,66.2,50.0,56,29.92,6.2,East,5.8,-,N/A,,Mostly Cloudy,100,2013-03-16 09:00:00
9:30 AM,66.2,51.8,60,29.92,6.2,East,8.1,-,N/A,,Mostly Cloudy,100,2013-03-16 09:30:00
10:00 AM,69.8,50.0,49,29.92,6.2,ESE,6.9,-,N/A,,Mostly Cloudy,110,2013-03-16 10:00:00
10:30 AM,69.8,50.0,49,29.92,6.2,East,8.1,-,N/A,,Mostly Cloudy,100,2013-03-16 10:30:00
11:00 AM,73.4,51.8,47,29.89,5.0,East,5.8,-,N/A,,Mostly Cloudy,80,2013-03-16 11:00:00
11:30 AM,75.2,51.8,44,29.89,5.0,NE,5.8,-,N/A,,Mostly Cloudy,40,2013-03-16 11:30:00
12:00 PM,75,53,35,29.82,6,ENE,4.6,,,,Overcast,60,2013-03-16 12:00:00
12:00 PM,75.2,53.6,47,29.89,5.6,ENE,4.6,-,N/A,,Mostly Cloudy,60,2013-03-16 12:00:00
12:30 PM,77.0,51.8,41,29.86,5.6,NE,6.9,-,N/A,,Mostly Cloudy,50,2013-03-16 12:30:00
1:00 PM,78.8,51.8,39,29.86,6.2,East,5.8,-,N/A,,Mostly Cloudy,80,2013-03-16 13:00:00
1:30 PM,80.6,51.8,37,29.86,6.2,East,3.5,-,N/A,,Mostly Cloudy,80,2013-03-16 13:30:00
2:00 PM,82.4,53.6,37,29.83,6.2,NE,5.8,-,N/A,,Mostly Cloudy,40,2013-03-16 14:00:00
2:30 PM,82.4,51.8,35,29.83,5.6,NE,3.5,-,N/A,,Mostly Cloudy,40,2013-03-16 14:30:00
3:00 PM,84,52,23,29.73,6,North,1.2,,,,Overcast,10,2013-03-16 15:00:00
3:00 PM,84.2,51.8,33,29.83,6.2,Variable,2.3,-,N/A,,Mostly Cloudy,0,2013-03-16 15:00:00
3:30 PM,84.2,48.2,29,29.80,6.2,Variable,2.3,-,N/A,,Mostly Cloudy,0,2013-03-16 15:30:00
4:00 PM,87.8,48.2,25,29.83,6.2,Variable,2.3,-,N/A,,Mostly Cloudy,0,2013-03-16 16:00:00
4:30 PM,89.6,48.2,24,29.80,6.2,Calm,Calm,-,N/A,,Mostly Cloudy,0,2013-03-16 16:30:00
5:00 PM,86.0,46.4,25,29.80,6.2,Variable,2.3,-,N/A,,Mostly Cloudy,0,2013-03-16 17:00:00
5:30 PM,84.2,46.4,27,29.80,6.2,NNW,3.5,-,N/A,,Mostly Cloudy,330,2013-03-16 17:30:00
6:00 PM,81,47,20,29.71,6,WSW,3.5,,,,Overcast,250,2013-03-16 18:00:00
6:00 PM,80.6,48.2,32,29.80,6.2,West,3.5,-,N/A,,Mostly Cloudy,270,2013-03-16 18:00:00
6:30 PM,80.6,46.4,30,29.80,6.2,NW,4.6,-,N/A,,Mostly Cloudy,310,2013-03-16 18:30:00
7:00 PM,78.8,44.6,30,29.77,5.0,SSE,5.8,-,N/A,,Mostly Cloudy,150,2013-03-16 19:00:00
7:30 PM,77.0,48.2,36,29.77,6.2,SSE,6.9,-,N/A,,Mostly Cloudy,150,2013-03-16 19:30:00
8:00 PM,78.8,39.2,24,29.77,6.2,South,10.4,-,N/A,,Scattered Clouds,190,2013-03-16 20:00:00
8:30 PM,78.8,37.4,23,29.80,6.2,SSW,16.1,-,N/A,,Partly Cloudy,200,2013-03-16 20:30:00
9:00 PM,79,38,14,29.72,6,South,13.8,,,,Scattered Clouds,190,2013-03-16 21:00:00
9:00 PM,78.8,37.4,23,29.80,6.2,South,15.0,-,N/A,,Partly Cloudy,190,2013-03-16 21:00:00
9:30 PM,78.8,37.4,23,29.77,6.2,South,18.4,-,N/A,,Partly Cloudy,190,2013-03-16 21:30:00
10:00 PM,78.8,37.4,23,29.77,6.2,SSW,18.4,29.9,N/A,,Partly Cloudy,200,2013-03-16 22:00:00
10:30 PM,78.8,37.4,23,29.77,6.2,SSW,18.4,29.9,N/A,,Scattered Clouds,200,2013-03-16 22:30:00
11:00 PM,78.8,37.4,23,29.77,6.2,South,17.3,-,N/A,,Scattered Clouds,190,2013-03-16 23:00:00
11:30 PM,78.8,37.4,23,29.74,6.2,South,20.7,-,N/A,,Scattered Clouds,190,2013-03-16 23:30:00